| time (UTC) | temp F | wind direction | speed MPH | gust MPH | rain 1hr in | rain 24hr in | rain mn in | humidity % | barometer mb |
| 20260904100018 | 69 | 314 | 1.0 | 3.0 | 0.00 | 0.27 | 0.00 | 92 | 1013.0 |
| 20260904094520 | 70 | 307 | 0.0 | 3.0 | 0.00 | 0.27 | 0.00 | 91 | 1012.9 |
| 20260904093017 | 70 | 314 | 2.0 | 4.0 | 0.00 | 0.27 | 0.00 | 91 | 1012.8 |
| 20260904091520 | 70 | 319 | 2.0 | 5.0 | 0.00 | 0.27 | 0.00 | 90 | 1012.8 |
| 20260904090013 | 70 | 285 | 2.0 | 5.0 | 0.00 | 0.27 | 0.00 | 90 | 1013.1 |
| 20260904084518 | 71 | 311 | 2.0 | 5.0 | 0.00 | 0.27 | 0.00 | 90 | 1013.1 |
| 20260904083013 | 71 | 339 | 2.0 | 4.0 | 0.00 | 0.27 | 0.00 | 90 | 1013.2 |
| 20260904081511 | 71 | 307 | 2.0 | 4.0 | 0.00 | 0.27 | 0.00 | 90 | 1013.1 |
| 20260904080009 | 71 | 320 | 2.0 | 5.0 | 0.00 | 0.63 | 0.00 | 89 | 1013.0 |
| 20260904074514 | 71 | 318 | 1.0 | 4.0 | 0.00 | 0.63 | 0.00 | 89 | 1013.1 |
| 20260904073011 | 71 | 316 | 2.0 | 4.0 | 0.00 | 0.63 | 0.00 | 89 | 1013.0 |
| 20260904071505 | 71 | 7 | 3.0 | 8.0 | 0.00 | 0.63 | 0.00 | 89 | 1012.7 |
| 20260904070008 | 71 | 333 | 4.0 | 10.0 | 0.00 | 0.63 | 0.00 | 88 | 1012.5 |
| 20260904064502 | 71 | 288 | 4.0 | 10.0 | 0.00 | 0.63 | 0.00 | 90 | 1012.2 |
| 20260904063056 | 0 | 0.0 | 0.0 | 0.00 | 0.63 | 0.00 | 1012.0 | ||
| 20260904061555 | 0 | 0.0 | 0.0 | 0.00 | 0.63 | 0.00 | 1011.9 | ||
| 20260904060049 | 0 | 0.0 | 0.0 | 0.00 | 0.63 | 0.00 | 1011.7 | ||
| 20260904053147 | 72 | 321 | 0.0 | 3.0 | 0.00 | 0.63 | 0.00 | 88 | 1011.7 |
| 20260904051550 | 73 | 307 | 0.0 | 2.0 | 0.00 | 0.63 | 0.00 | 86 | 1011.5 |
| 20260904050041 | 0 | 0.0 | 0.0 | 0.00 | 0.85 | 0.00 | 1011.8 | ||
| 20260904043037 | 75 | 233 | 2.0 | 9.0 | 0.00 | 0.85 | 0.00 | 86 | 1012.0 |
| 20260904041534 | 76 | 274 | 3.0 | 10.0 | 0.00 | 0.85 | 0.00 | 86 | 1012.3 |
| 20260904040033 | 76 | 247 | 3.0 | 12.0 | 0.00 | 0.85 | 0.85 | 86 | 1012.5 |
| 20260904033028 | 79 | 341 | 4.0 | 8.0 | 0.00 | 0.85 | 0.85 | 88 | 1012.9 |
| 20260904031528 | 79 | 292 | 3.0 | 7.0 | 0.00 | 0.85 | 0.85 | 86 | 1013.0 |
| 20260904030028 | 78 | 310 | 1.0 | 3.0 | 0.00 | 0.85 | 0.85 | 90 | 1013.4 |
| 20260904023027 | 77 | 229 | 0.0 | 3.0 | 0.00 | 0.85 | 0.85 | 93 | 1013.4 |
| 20260904021527 | 77 | 276 | 0.0 | 0.0 | 0.00 | 0.85 | 0.85 | 92 | 1013.0 |
| 20260904020027 | 77 | 249 | 0.0 | 2.0 | 0.00 | 0.85 | 0.85 | 92 | 1013.0 |
| 20260904013026 | 78 | 304 | 0.0 | 0.0 | 0.00 | 0.85 | 0.85 | 88 | 1012.7 |
| 20260904011552 | 0 | 0.0 | 0.0 | 0.00 | 0.85 | 0.85 | 1012.6 | ||
| 20260904010018 | 0 | 0.0 | 0.0 | 0.00 | 0.85 | 0.85 | 1012.8 | ||
| 20260904003017 | 80 | 304 | 0.0 | 0.0 | 0.00 | 0.85 | 0.85 | 82 | 1013.0 |
| 20260904001516 | 81 | 304 | 0.0 | 1.0 | 0.00 | 0.85 | 0.85 | 79 | 1013.0 |
| 20260904000030 | 81 | 311 | 0.0 | 1.0 | 0.00 | 0.85 | 0.85 | 78 | 1013.0 |
| 20260903233019 | 81 | 302 | 0.0 | 1.0 | 0.00 | 0.85 | 0.85 | 79 | 1012.5 |
| 20260903231516 | 82 | 293 | 0.0 | 3.0 | 0.00 | 0.85 | 0.85 | 76 | 1012.7 |
| 20260903230014 | 0 | 0.0 | 0.0 | 0.00 | 0.85 | 0.85 | 1012.6 | ||
| 20260903223010 | 84 | 309 | 0.0 | 3.0 | 0.00 | 0.85 | 0.85 | 71 | 1012.3 |
| 20260903221509 | 84 | 317 | 1.0 | 3.0 | 0.00 | 0.85 | 0.85 | 71 | 1012.4 |
| 20260903220009 | 85 | 310 | 3.0 | 5.0 | 0.00 | 0.85 | 0.85 | 70 | 1012.2 |
| 20260903214508 | 86 | 314 | 1.0 | 4.0 | 0.00 | 0.85 | 0.85 | 68 | 1012.2 |
| 20260903213007 | 86 | 326 | 1.0 | 5.0 | 0.00 | 0.85 | 0.85 | 68 | 1012.2 |
| 20260903210006 | 86 | 318 | 0.0 | 5.0 | 0.00 | 0.85 | 0.85 | 68 | 1012.0 |
| 20260903204505 | 86 | 317 | 1.0 | 6.0 | 0.00 | 0.85 | 0.85 | 68 | 1012.2 |
| 20260903203013 | 86 | 335 | 2.0 | 5.0 | 0.00 | 0.85 | 0.85 | 66 | 1012.1 |
| 20260903200101 | 87 | 152 | 1.0 | 5.0 | 0.00 | 0.85 | 0.85 | 65 | 1012.5 |
| 20260903194558 | 86 | 330 | 2.0 | 9.0 | 0.00 | 0.85 | 0.85 | 66 | 1012.5 |
| 20260903193056 | 87 | 131 | 0.0 | 4.0 | 0.00 | 0.85 | 0.85 | 65 | 1012.7 |
| 20260903190050 | 85 | 283 | 3.0 | 8.0 | 0.00 | 0.86 | 0.85 | 67 | 1013.2 |
| 20260903184545 | 85 | 338 | 2.0 | 7.0 | 0.00 | 0.86 | 0.85 | 69 | 1013.5 |
| 20260903183046 | 83 | 292 | 5.0 | 11.0 | 0.00 | 0.86 | 0.85 | 69 | 1013.6 |
| 20260903180039 | 84 | 354 | 3.0 | 11.0 | 0.00 | 0.88 | 0.85 | 70 | 1014.0 |
| 20260903174536 | 83 | 307 | 3.0 | 9.0 | 0.00 | 0.88 | 0.85 | 72 | 1014.1 |
| 20260903173033 | 82 | 296 | 2.0 | 8.0 | 0.00 | 0.88 | 0.85 | 73 | 1014.2 |
| 20260903170029 | 81 | 245 | 4.0 | 10.0 | 0.00 | 1.08 | 0.85 | 81 | 1014.7 |
| 20260903164525 | 80 | 271 | 3.0 | 7.0 | 0.00 | 1.08 | 0.85 | 84 | 1015.0 |
| 20260903163023 | 79 | 283 | 4.0 | 10.0 | 0.00 | 1.08 | 0.85 | 84 | 1015.1 |
| 20260903160028 | 78 | 70 | 1.0 | 8.0 | 0.00 | 1.68 | 0.85 | 82 | 1015.6 |
| 20260903154513 | 77 | 326 | 1.0 | 6.0 | 0.00 | 1.68 | 0.85 | 85 | 1015.9 |
| 20260903153011 | 76 | 319 | 1.0 | 5.0 | 0.00 | 1.68 | 0.85 | 86 | 1016.0 |
| 20260903150015 | 75 | 326 | 1.0 | 5.0 | 0.00 | 1.68 | 0.85 | 88 | 1016.4 |
| 20260903144532 | 75 | 186 | 3.0 | 6.0 | 0.00 | 1.68 | 0.85 | 88 | 1016.7 |
| 20260903143005 | 75 | 320 | 1.0 | 4.0 | 0.00 | 1.68 | 0.85 | 91 | 1016.6 |
| 20260903134606 | 73 | 318 | 6.0 | 17.0 | 0.00 | 1.68 | 0.85 | 93 | 1017.1 |
| 20260903133101 | 73 | 307 | 1.0 | 5.0 | 0.00 | 1.68 | 0.85 | 95 | 1015.9 |
| 20260903130053 | 72 | 313 | 0.0 | 4.0 | 0.00 | 1.68 | 0.85 | 99 | 1016.2 |
| 20260903124652 | 71 | 311 | 1.0 | 3.0 | 0.00 | 1.68 | 0.85 | 100 | 1016.4 |
| 20260903123053 | 70 | 323 | 2.0 | 6.0 | 0.00 | 1.68 | 0.85 | 100 | 1016.3 |
| 20260903120100 | 69 | 313 | 0.0 | 3.0 | 0.00 | 1.68 | 0.85 | 100 | 1015.7 |
| 20260903114551 | 0 | 0.0 | 0.0 | 0.01 | 1.68 | 0.85 | 1015.6 | ||
| 20260903113122 | 0 | 0.0 | 0.0 | 0.02 | 1.68 | 0.85 | 1016.2 | ||
| 20260903110043 | 68 | 154 | 1.0 | 5.0 | 0.13 | 1.68 | 0.85 | 100 | 1015.7 |
| 20260903104556 | 68 | 296 | 0.0 | 3.0 | 0.19 | 1.67 | 0.84 | 100 | 1016.1 |
| 20260903103044 | 68 | 134 | 0.0 | 3.0 | 0.24 | 1.66 | 0.83 | 100 | 1015.7 |